Previsão horária em Jucurutu

Hoje, 21 Junho, Segunda-feira

Tempo Temperatura Precipitação Vento Pressão Humidade
00:00 +27°C° 0 mm 3 m/s 752 mmHg 74%
01:00 +26°C° 0 mm 2 m/s 752 mmHg 76%
02:00 +26°C° 0 mm 2 m/s 752 mmHg 77%
03:00 +26°C° 0 mm 2 m/s 751 mmHg 78%
04:00 +25°C° 0 mm 2 m/s 751 mmHg 80%
05:00 +25°C° 0 mm 1 m/s 752 mmHg 81%
06:00 +25°C° 0 mm 1 m/s 752 mmHg 83%
07:00 +24°C° 0 mm 1 m/s 752 mmHg 85%
08:00 +27°C° 0 mm 2 m/s 752 mmHg 73%
09:00 +29°C° 0 mm 3 m/s 753 mmHg 60%
10:00 +32°C° 0 mm 4 m/s 753 mmHg 48%
11:00 +34°C° 0 mm 4 m/s 752 mmHg 41%
12:00 +35°C° 0 mm 4 m/s 752 mmHg 33%
13:00 +37°C° 0 mm 4 m/s 751 mmHg 26%
14:00 +38°C° 0 mm 4 m/s 750 mmHg 26%
15:00 +38°C° 0 mm 4 m/s 750 mmHg 26%
16:00 +38°C° 0 mm 4 m/s 749 mmHg 25%
17:00 +36°C° 0 mm 6 m/s 749 mmHg 35%
18:00 +34°C° 0 mm 7 m/s 750 mmHg 46%
19:00 +32°C° 0 mm 8 m/s 750 mmHg 56%
20:00 +29°C° 0 mm 7 m/s 751 mmHg 59%
21:00 +28°C° 0 mm 5 m/s 751 mmHg 63%
22:00 +27°C° 0 mm 4 m/s 752 mmHg 66%
23:00 +27°C° 0 mm 3 m/s 752 mmHg 68%

Amanhã, 22 Junho, Terça-feira

Tempo Temperatura Precipitação Vento Pressão Humidade
00:00 +26°C° 0 mm 3 m/s 752 mmHg 70%
01:00 +26°C° 0 mm 2 m/s 752 mmHg 71%
02:00 +25°C° 0 mm 2 m/s 752 mmHg 74%
03:00 +25°C° 0 mm 1 m/s 751 mmHg 76%
04:00 +24°C° 0 mm 1 m/s 751 mmHg 79%
05:00 +24°C° 0 mm 1 m/s 751 mmHg 79%
06:00 +24°C° 0 mm 1 m/s 752 mmHg 80%
07:00 +24°C° 0 mm 1 m/s 752 mmHg 80%
08:00 +26°C° 0 mm 3 m/s 752 mmHg 69%
09:00 +29°C° 0 mm 4 m/s 753 mmHg 59%
10:00 +32°C° 0 mm 5 m/s 753 mmHg 48%
11:00 +34°C° 0 mm 5 m/s 752 mmHg 43%
12:00 +35°C° 0 mm 5 m/s 752 mmHg 37%
13:00 +38°C° 0 mm 6 m/s 751 mmHg 32%
14:00 +38°C° 0 mm 6 m/s 750 mmHg 33%
15:00 +36°C° 0 mm 7 m/s 750 mmHg 35%
16:00 +36°C° 0 mm 7 m/s 749 mmHg 36%
17:00 +35°C° 0 mm 6 m/s 749 mmHg 39%
18:00 +33°C° 0 mm 6 m/s 750 mmHg 42%
19:00 +32°C° 0 mm 5 m/s 750 mmHg 45%
20:00 +30°C° 0 mm 6 m/s 751 mmHg 49%
21:00 +29°C° 0 mm 6 m/s 751 mmHg 54%
22:00 +27°C° 0 mm 6 m/s 752 mmHg 58%
23:00 +27°C° 0 mm 5 m/s 752 mmHg 63%

Depois de amanhã, 23 Junho, Quarta-feira

Tempo Temperatura Precipitação Vento Pressão Humidade
00:00 +26°C° 0 mm 4 m/s 752 mmHg 68%
01:00 +25°C° 0 mm 3 m/s 752 mmHg 73%
02:00 +25°C° 0 mm 3 m/s 751 mmHg 76%
03:00 +24°C° 0 mm 2 m/s 751 mmHg 79%
04:00 +24°C° 0 mm 2 m/s 751 mmHg 83%
05:00 +24°C° 0 mm 2 m/s 751 mmHg 83%
06:00 +24°C° 0 mm 2 m/s 752 mmHg 83%
07:00 +24°C° 0 mm 2 m/s 752 mmHg 84%
08:00 +26°C° 0 mm 3 m/s 752 mmHg 73%
09:00 +29°C° 0 mm 4 m/s 752 mmHg 63%
10:00 +32°C° 0 mm 6 m/s 752 mmHg 52%
11:00 +33°C° 0 mm 6 m/s 752 mmHg 47%
12:00 +35°C° 0 mm 6 m/s 751 mmHg 42%
13:00 +36°C° 0 mm 6 m/s 750 mmHg 37%
14:00 +35°C° 0 mm 6 m/s 750 mmHg 39%
15:00 +35°C° 0 mm 6 m/s 750 mmHg 42%
16:00 +34°C° 0 mm 6 m/s 749 mmHg 44%
17:00 +33°C° 0 mm 6 m/s 749 mmHg 46%
18:00 +32°C° 0 mm 6 m/s 750 mmHg 49%
19:00 +32°C° 0 mm 6 m/s 750 mmHg 51%
20:00 +30°C° 0 mm 5 m/s 751 mmHg 56%
21:00 +29°C° 0 mm 5 m/s 751 mmHg 61%
22:00 +28°C° 0 mm 5 m/s 751 mmHg 66%
23:00 +28°C° 0 mm 4 m/s 751 mmHg 66%

24 Junho, Quinta-feira

Tempo Temperatura Precipitação Vento Pressão Humidade
00:00 +27°C° 0 mm 4 m/s 751 mmHg 67%
01:00 +27°C° 0 mm 3 m/s 751 mmHg 68%
02:00 +26°C° 0 mm 3 m/s 751 mmHg 73%
03:00 +25°C° 0 mm 2 m/s 751 mmHg 77%
04:00 +24°C° 0 mm 2 m/s 751 mmHg 82%
05:00 +24°C° 0 mm 2 m/s 751 mmHg 83%
06:00 +24°C° 0 mm 2 m/s 751 mmHg 83%
07:00 +24°C° 0 mm 2 m/s 752 mmHg 84%
08:00 +26°C° 0 mm 3 m/s 752 mmHg 74%
09:00 +28°C° 0 mm 5 m/s 752 mmHg 65%
10:00 +30°C° 0 mm 6 m/s 753 mmHg 56%
11:00 +32°C° 0 mm 6 m/s 752 mmHg 52%
12:00 +33°C° 0 mm 6 m/s 751 mmHg 48%
13:00 +34°C° 0 mm 6 m/s 751 mmHg 45%
14:00 +34°C° 0 mm 6 m/s 750 mmHg 45%
15:00 +34°C° 0 mm 6 m/s 749 mmHg 45%
16:00 +34°C° 0 mm 6 m/s 749 mmHg 45%
17:00 +32°C° 0.2 mm 6 m/s 749 mmHg 51%
18:00 +30°C° 0.2 mm 6 m/s 750 mmHg 57%
19:00 +29°C° 0.2 mm 6 m/s 750 mmHg 63%
20:00 +28°C° 0 mm 5 m/s 751 mmHg 64%
21:00 +28°C° 0 mm 5 m/s 751 mmHg 66%
22:00 +27°C° 0 mm 4 m/s 752 mmHg 68%
23:00 +27°C° 0 mm 4 m/s 751 mmHg 68%

25 Junho, Sexta-feira

Tempo Temperatura Precipitação Vento Pressão Humidade
00:00 +26°C° 0 mm 4 m/s 751 mmHg 68%
01:00 +26°C° 0 mm 4 m/s 751 mmHg 68%
02:00 +26°C° 0 mm 4 m/s 751 mmHg 71%
03:00 +25°C° 0 mm 4 m/s 751 mmHg 73%
04:00 +25°C° 0 mm 4 m/s 750 mmHg 76%
05:00 +24°C° 0 mm 3 m/s 751 mmHg 78%
06:00 +24°C° 0 mm 3 m/s 751 mmHg 80%
07:00 +24°C° 0 mm 2 m/s 751 mmHg 82%
08:00 +26°C° 0 mm 4 m/s 752 mmHg 71%
09:00 +28°C° 0 mm 6 m/s 752 mmHg 60%
10:00 +30°C° 0 mm 7 m/s 752 mmHg 49%
11:00 +33°C° 0 mm 7 m/s 751 mmHg 44%
12:00 +35°C° 0 mm 6 m/s 751 mmHg 38%
13:00 +36°C° 0 mm 6 m/s 750 mmHg 33%
14:00 +36°C° 0 mm 6 m/s 749 mmHg 33%
15:00 +36°C° 0 mm 6 m/s 749 mmHg 34%
16:00 +36°C° 0 mm 6 m/s 748 mmHg 34%
17:00 +35°C° 0 mm 6 m/s 748 mmHg 38%
18:00 +34°C° 0 mm 6 m/s 749 mmHg 42%
19:00 +32°C° 0 mm 6 m/s 749 mmHg 46%
20:00 +30°C° 0 mm 7 m/s 750 mmHg 51%
21:00 +29°C° 0 mm 7 m/s 750 mmHg 55%
22:00 +28°C° 0 mm 7 m/s 751 mmHg 60%
23:00 +27°C° 0 mm 6 m/s 751 mmHg 63%

26 Junho, Sábado

Tempo Temperatura Precipitação Vento Pressão Humidade
00:00 +26°C° 0 mm 6 m/s 751 mmHg 65%
01:00 +26°C° 0 mm 5 m/s 751 mmHg 68%
02:00 +25°C° 0 mm 5 m/s 750 mmHg 70%
03:00 +25°C° 0 mm 4 m/s 750 mmHg 72%
04:00 +23°C° 0 mm 4 m/s 750 mmHg 74%
05:00 +24°C° 0 mm 3 m/s 750 mmHg 75%
06:00 +24°C° 0 mm 3 m/s 751 mmHg 76%
07:00 +22°C° 0 mm 3 m/s 751 mmHg 76%
08:00 +26°C° 0 mm 4 m/s 751 mmHg 67%
09:00 +28°C° 0 mm 6 m/s 751 mmHg 57%
10:00 +30°C° 0 mm 7 m/s 752 mmHg 48%
11:00 +33°C° 0 mm 7 m/s 751 mmHg 42%
12:00 +35°C° 0 mm 6 m/s 750 mmHg 37%
13:00 +38°C° 0 mm 6 m/s 750 mmHg 32%
14:00 +38°C° 0 mm 6 m/s 749 mmHg 31%
15:00 +37°C° 0 mm 5 m/s 748 mmHg 30%
16:00 +39°C° 0 mm 5 m/s 748 mmHg 29%
17:00 +36°C° 0 mm 6 m/s 748 mmHg 36%
18:00 +34°C° 0 mm 7 m/s 748 mmHg 42%
19:00 +32°C° 0 mm 8 m/s 749 mmHg 49%
20:00 +30°C° 0 mm 7 m/s 750 mmHg 54%
21:00 +29°C° 0 mm 7 m/s 750 mmHg 59%
22:00 +27°C° 0 mm 6 m/s 751 mmHg 64%
23:00 +27°C° 0 mm 5 m/s 751 mmHg 67%
Mostrar mais

Necessitamos do seu Consentimento

A Meteoprog e os seus Fornecedores de Serviços podem armazenar e aceder a dados pessoais como cookies, identificadores do dispositivo ou outras tecnologias semelhantes existentes no seu dispositivo e processar estes dados para personalizar conteúdos e anúncios, assim como funcionalidades nas redes sociais e análise de tráfego.

  • Armazenar e/ou aceder a informações no seu dispositivo

    Os cookies, identificadores do dispositivo ou outras informações podem ser armazenados ou acedidos no seu dispositivo, para os fins acima indicados.

  • Anúncios e conteúdos personalizados, medição de anúncios e conteúdos, dados sobre o público-alvo e desenvolvimento de produtos

    Os anúncios e os conteúdos podem ser personalizados com base num perfil. Podem ser adicionados dados adicionais para uma maior personalização dos anúncios e dos conteúdos. A eficácia dos anúncios e dos conteúdos pode ser medida. Podem ser obtidas informações sobre o público que visualizou os anúncios e os conteúdos. Estes dados podem ser usados para desenvolver ou melhorar sistemas, softwares ou a experiência do utilizador.

Ao clicar em "Eu concordo”, permitirá o uso de cookies, identificadores do dispositivo e web beacons mencionados ou outras tecnologias semelhantes. As configurações do navegador do seu dispositivo podem ser alteradas.

Para certos fins, podem ser invocados interesses legítimos ao invés de consentimento. Pode ler mais informação sobre este assunto na nossa Política de Privacidade e Cookies.